Weather History for Basel, Switzerland

Change the Weather History Date:

Tuesday, March 5, 2013

  Actual Average Record
Temperature  
Mean Temperature 40 °F -  
Max Temperature 56 °F 53 °F 62 °F (2003)
Min Temperature 25 °F 35 °F 24 °F (2011)
Degree Days  
Heating Degree Days 24    
Moisture  
Dew Point 28 °F    
Average Humidity 66    
Maximum Humidity 93    
Minimum Humidity 23    
Precipitation  
Precipitation 0.00 in - - ()
Sea Level Pressure  
Sea Level Pressure 29.84 in    
Wind  
Wind Speed 3 mph ()    
Max Wind Speed 7 mph    
Max Gust Speed -    
Visibility 4.2 miles    
Events Rain    
Averages and records for this station are not official NWS values.
T = Trace of Precipitation, MM = Missing Value Source: Averaged Metar Reports

Daily Weather History Graph

Daily Weather History Graph

Search for Another Location

Airport:

Trip Planner

Search our weather history database for the weather conditions in past years. The results will help you decide how hot, cold, wet, or windy it might be!

Date:

Astronomy

Mar. 05, 2013 Rise Set
Actual Time 7:02 AM CET 6:20 PM CET
Civil Twilight 6:32 AM CET 6:51 PM CET
Nautical Twilight 5:56 AM CET 7:27 PM CET
Astronomical Twilight 5:20 AM CET 8:03 PM CET
Moon 2:17 AM CET (3/5) 11:24 AM CET (3/5)
Length of Visible Light 12h 19m
Length of Day
11h 18m
Last Quarter, 44% of the Moon is Illuminated
Mar 5
Last Quarter
Mar 11
New
Mar 19
First Quarter
Mar 27
Full
Apr 3
Last Quarter

Hourly Weather History & Observations

Time (CET) Temp. Windchill Dew Point Humidity Pressure Visibility Wind Dir Wind Speed Gust Speed Precip Events Conditions
12:00 AM 30.2 °F - 26.6 °F 86% 29.95 in 2.8 mi Variable 2.3 mph - N/A   Mist
12:30 AM 30.2 °F 25.4 °F 26.6 °F 86% 29.95 in - NE 4.6 mph - N/A   Mist
1:00 AM 29 °F - 26 °F 85% 30.00 in 2 mi ENE 1.2 mph - -   Mist
1:00 AM 30.2 °F - 26.6 °F 86% 29.95 in 2.8 mi Variable 1.2 mph - N/A   Mist
1:30 AM 30.2 °F - 26.6 °F 86% 29.95 in - Variable 1.2 mph - N/A   Mist
2:00 AM 30.2 °F - 26.6 °F 86% 29.92 in 3.1 mi Variable 1.2 mph - N/A   Mist
2:30 AM 28.4 °F 24.6 °F 26.6 °F 93% 29.92 in 3.1 mi Variable 3.5 mph - N/A   Mist
3:00 AM 30.2 °F 26.7 °F 26.6 °F 86% 29.92 in 3.1 mi Variable 3.5 mph - N/A   Mist
3:30 AM 30.2 °F 24.3 °F 28.4 °F 93% 29.92 in - SSE 5.8 mph - N/A   Mist
4:00 AM 26.6 °F 20.0 °F 23.0 °F 86% 29.92 in - SSE 5.8 mph - N/A   Mist
4:30 AM 26.6 °F 22.6 °F 24.8 °F 93% 29.92 in 2.5 mi South 3.5 mph - N/A   Mist
5:00 AM 30.2 °F 24.3 °F 28.4 °F 93% 29.89 in 2.5 mi South 5.8 mph - N/A   Mist
5:30 AM 32.0 °F 26.4 °F 26.6 °F 80% 29.89 in 2.8 mi South 5.8 mph - N/A   Mist
6:00 AM 30.2 °F 23.4 °F 26.6 °F 86% 29.89 in 2.8 mi South 6.9 mph - N/A   Mist
6:30 AM 32.0 °F 26.4 °F 26.6 °F 80% 29.89 in - South 5.8 mph - N/A   Mist
7:00 AM 29 °F - 26 °F 81% 29.94 in 3 mi SSE 2.3 mph - -   Mist
7:00 AM 30.2 °F - 26.6 °F 86% 29.89 in - Variable 2.3 mph - N/A   Mist
7:30 AM 28.4 °F - 24.8 °F 86% 29.89 in - Variable 1.2 mph - N/A   Mist
8:00 AM 28.4 °F - 26.6 °F 93% 29.89 in 2.5 mi Variable 2.3 mph - N/A   Mist
8:35 AM 32.0 °F - 30.2 °F 93% 29.89 in 2.5 mi Variable 2.3 mph - N/A   Mist
9:00 AM 33.8 °F - 32.0 °F 93% 29.89 in 2.5 mi Variable 2.3 mph - N/A   Mist
9:30 AM 37.4 °F - 32.0 °F 81% 29.89 in 6.2 mi Variable 1.2 mph - N/A   Mist
10:00 AM 39.2 °F - 30.2 °F 70% 29.89 in 6.2 mi Variable 1.2 mph - N/A   Mist
10:30 AM 41.0 °F - 30.2 °F 65% 29.89 in 6.2 mi Variable 1.2 mph - N/A   Mist
11:00 AM 42.8 °F - 32.0 °F 66% 29.86 in 3.7 mi Variable 2.3 mph - N/A   Unknown
11:30 AM 44.6 °F - 32.0 °F 61% 29.86 in 3.7 mi Variable 2.3 mph - N/A   Unknown
12:00 PM 48.2 °F - 30.2 °F 50% 29.86 in 5.0 mi Variable 3.5 mph - N/A   Unknown
12:30 PM 51.8 °F - 30.2 °F 44% 29.86 in 5.6 mi Variable 3.5 mph - N/A   Unknown
1:00 PM 54 °F - 27 °F 23% 29.85 in 6 mi SE 4.6 mph - -   Scattered Clouds
1:00 PM 53.6 °F - 28.4 °F 38% 29.83 in 5.6 mi Variable 3.5 mph - N/A   Unknown
1:30 PM 53.6 °F - 26.6 °F 35% 29.83 in - East 4.6 mph - N/A   Clear
2:00 PM 55.4 °F - 24.8 °F 31% 29.80 in - Variable 2.3 mph - N/A   Clear
2:30 PM 55.4 °F - 24.8 °F 31% 29.80 in - ESE 4.6 mph - N/A   Clear
3:00 PM 57.2 °F - 24.8 °F 29% 29.80 in - East 4.6 mph - N/A   Clear
3:30 PM 55.4 °F - 26.6 °F 33% 29.77 in - East 6.9 mph - N/A   Clear
4:00 PM 55.4 °F - 24.8 °F 31% 29.77 in - East 5.8 mph - N/A   Clear
4:30 PM 55.4 °F - 26.6 °F 33% 29.77 in - ESE 4.6 mph - N/A   Clear
5:00 PM 55.4 °F - 24.8 °F 31% 29.77 in - East 4.6 mph - N/A   Clear
6:00 PM 51.8 °F - 24.8 °F 35% 29.74 in - Variable 2.3 mph - N/A   Clear
6:30 PM 50.0 °F - 26.6 °F 40% 29.74 in - East 3.5 mph - N/A   Clear
7:00 PM 49 °F - 26 °F 27% 29.78 in 9 mi ENE 3.5 mph - -   Partly Cloudy
7:00 PM 50.0 °F - 24.8 °F 37% 29.74 in - NE 3.5 mph - N/A   Clear
7:30 PM 44.6 °F - 30.2 °F 57% 29.74 in - Variable 2.3 mph - N/A   Clear
8:00 PM 41.0 °F - 30.2 °F 65% 29.74 in - Calm Calm - N/A   Clear
8:30 PM 39.2 °F - 30.2 °F 70% 29.74 in - Variable 2.3 mph - N/A   Clear
9:00 PM 39.2 °F - 32.0 °F 75% 29.74 in 6.2 mi Variable 2.3 mph - N/A Rain Light Rain
9:30 PM 42.8 °F - 30.2 °F 61% 29.74 in 6.2 mi Variable 2.3 mph - N/A Rain Light Rain
10:00 PM 41.0 °F - 32.0 °F 70% 29.74 in - Calm Calm - N/A   Clear
10:30 PM 41.0 °F - 32.0 °F 70% 29.74 in - Variable 2.3 mph - N/A   Clear
11:00 PM 39.2 °F - 32.0 °F 75% 29.74 in 5.0 mi Variable 2.3 mph - N/A   Unknown
11:30 PM 39.2 °F - 33.8 °F 81% 29.74 in 5.0 mi Variable 2.3 mph - N/A   Unknown